Regional Weather Roundup
Issued by NWS

Home | Current Version | Previous Version | Text Only | Print | Product List | Glossary Off
Versions: 1 2 3 4 5 6 7 8 9 10 11 12 13 14 15 16 17 18 19 20 21 22 23 24 25 26 27 28 29 30 31 32 33 34 35 36 37 38 39 40 41 42 43 44 45 46 47 48 49 50

000
ASUS43 KTOP 300808
RWRKS

WEATHER ROUNDUP FOR KANSAS
NATIONAL WEATHER SERVICE GOODLAND KS
300 AM CDT FRI SEP 30 2016

NOTE:  "FAIR" INDICATES FEW OR NO CLOUDS BELOW 12,000 FEET WITH NO
SIGNIFICANT WEATHER AND/OR OBSTRUCTIONS TO VISIBILITY.

KSZ001>006-013>018-027>032-041>047-300900-
NORTHWEST KANSAS

CITY           SKY/WX    TMP DP  RH WIND       PRES   REMARKS
GOODLAND       CLOUDY    47  39  74 S12       30.26S
HAYS           CLEAR     46  36  66 CALM      30.31S
HILL CITY      CLEAR     47  44  90 E6        30.31F
RUSSELL        CLEAR     48  45  89 S6        30.29F
$$

KSZ061>065-074>080-084>089-300900-
SOUTHWEST KANSAS

CITY           SKY/WX    TMP DP  RH WIND       PRES   REMARKS
DODGE CITY     CLEAR     50  45  83 S8        30.31R
ELKHART          N/A     50  39  66 S10         N/A
GARDEN CITY    CLEAR     50  43  77 SE9       30.29S
GREAT BEND     CLEAR     46  37  71 CALM      30.30F
LIBERAL        CLEAR     52  39  62 SE8       30.30S
PRATT          CLEAR     47  44  90 CALM      30.30F
$$

KSZ066>073-081>083-090>101-300900-
SOUTHEAST KANSAS

CITY           SKY/WX    TMP DP  RH WIND       PRES   REMARKS
CHANUTE        CLEAR     50  48  93 NW5       30.25F
COFFEYVILLE    CLEAR     52  49  89 NW5       30.25F
HUTCHINSON     CLEAR     49  46  90 CALM      30.30F
MEDICINE LODGE   N/A     49  46  90 CALM      30.29F
NEWTON           N/A     52  48  86 N3        30.30S
PARSONS        CLEAR     47  46  97 CALM      30.26F
WICHITA INTL   PTCLDY    52  49  89 NW5       30.29S
WICHITA JABRA  CLEAR     53  49  86 N5        30.29S
WICHITA MCCONL CLEAR     53  49  86 N3        30.28F
WINFIELD       CLEAR     50  49  96 CALM      30.29S
$$

KSZ007>012-019>026-033>040-048>060-102>105-300900-
NORTHEAST KANSAS

CITY           SKY/WX    TMP DP  RH WIND       PRES   REMARKS
CONCORDIA      CLEAR     49  48  97 CALM      30.31S
EMPORIA        CLEAR     51  48  89 W7        30.28F
LAWRENCE       CLEAR     50  49  96 W6        30.26F
MANHATTAN      CLEAR     47  45  93 CALM      30.30S
MARYSVILLE     CLEAR     43  43 100 N3        30.30F
OLATHE IND     CLEAR     52  48  86 NW5       30.26F
OLATHE EXE     CLEAR     54  48  80 N6        30.25F
SALINA         CLEAR     50  46  86 CALM      30.31S
TOPEKA BILLARD CLEAR     49  46  90 CALM      30.27F
TOPEKA FORBES  CLEAR     50  47  89 NW6       30.27S
$$




USA.gov is the U.S. government's official web portal to all federal, state and local government web resources and services.